Baton Rouge, LA

10:06 AM CDT on October 20, 2019 (GMT -0500)
Baton Rouge Metro-Ryan

Weather History for KBTR - August, 2019

Change the Weather History Date:

Saturday, August 17, 2019

  Actual Average Record
Temperature  
Mean Temperature 84 °F 83 °F  
Max Temperature 93 °F 93 °F 99 °F (2000)
Min Temperature 75 °F 74 °F 61 °F (2004)
Degree Days  
Heating Degree Days 0 0  
Month to date heating degree days 0 0  
Since 1 June heating degree days 0 0  
Since 1 July heating degree days 0 0  
Cooling Degree Days 19 18  
Month to date cooling degree days 350 306  
Year to date cooling degree days 2084 1911  
Since 1 June cooling degree days 1413 1346  
Growing Degree Days 33 (Base 50)    
Moisture  
Dew Point 74 °F    
Average Humidity 75    
Maximum Humidity 94    
Minimum Humidity 56    
Precipitation  
Precipitation 0.01 in 0.19 in 4.41 in (2010)
Month to date precipitation 2.57 3.28  
Year to date precipitation 43.99 39.17  
Snow  
Snow 0.00 in - - ()
Month to date snowfall 0.0  
Since 1 June snowfall 0.0  
Since 1 July snowfall 0.0  
Snow Depth 0.00 in    
Sea Level Pressure  
Sea Level Pressure 29.94 in    
Wind  
Wind Speed 4 mph (SSE)    
Max Wind Speed 16 mph    
Max Gust Speed 19 mph    
Visibility 9 miles    
Events Rain , Thunderstorm    
T = Trace of Precipitation, MM = Missing Value Source: NWS Daily Summary

Daily Weather History Graph

Daily Weather History Graph

Search for Another Location

Airport or City:

Astronomy

Aug. 17, 2019 Rise Set
Actual Time 6:32 AM CDT 7:44 PM CDT
Civil Twilight 6:07 AM CDT 8:09 PM CDT
Nautical Twilight 5:37 AM CDT 8:39 PM CDT
Astronomical Twilight 5:06 AM CDT 9:10 PM CDT
Moon 9:19 PM CDT (8/17) 8:16 AM CDT (8/17)
Length of Visible Light 14h 02m
Length of Day
13h 12m
Waning Gibbous, 96% of the Moon is Illuminated
Aug 17
Waning Gibbous
Aug 23
Last Quarter
Aug 30
New
Sep 5
First Quarter
Sep 13
Full

Hourly Weather History & Observations

Time (CDT) Temp. Heat Index Dew Point Humidity Pressure Visibility Wind Dir Wind Speed Gust Speed Precip Events Conditions
12:53 AM 79.0 °F - 73.9 °F 84% 29.95 in 10.0 mi Calm Calm - N/A   Clear
1:53 AM 79.0 °F - 71.1 °F 77% 29.94 in 10.0 mi SW 5.8 mph - N/A   Clear
2:53 AM 78.1 °F - 73.0 °F 84% 29.94 in 10.0 mi West 4.6 mph - N/A   Clear
3:53 AM 77.0 °F - 73.0 °F 88% 29.93 in 9.0 mi NNE 3.5 mph - N/A   Clear
4:53 AM 75.0 °F - 72.0 °F 90% 29.91 in 7.0 mi NNE 3.5 mph - N/A   Clear
5:53 AM 75.0 °F - 72.0 °F 90% 29.91 in 8.0 mi Calm Calm - N/A   Clear
6:53 AM 75.0 °F - 73.0 °F 94% 29.93 in 7.0 mi Calm Calm - N/A   Clear
7:53 AM 79.0 °F - 73.9 °F 84% 29.96 in 8.0 mi Calm Calm - N/A   Clear
8:53 AM 82.9 °F 90.8 °F 75.9 °F 79% 29.97 in 10.0 mi Calm Calm - N/A   Clear
9:53 AM 87.1 °F 95.4 °F 73.9 °F 65% 29.97 in 10.0 mi West 4.6 mph - N/A   Clear
10:53 AM 90.0 °F 100.2 °F 75.0 °F 61% 29.98 in 10.0 mi ENE 3.5 mph - N/A   Scattered Clouds
11:53 AM 90.0 °F 97.9 °F 73.0 °F 57% 29.96 in 10.0 mi Calm Calm - N/A   Mostly Cloudy
12:53 PM 91.9 °F 101.3 °F 73.9 °F 55% 29.95 in 10.0 mi ENE 6.9 mph - N/A   Mostly Cloudy
1:53 PM 88.0 °F 98.5 °F 75.9 °F 67% 29.94 in 10.0 mi Calm Calm - 0.00 in   Mostly Cloudy
2:17 PM 87.1 °F 97.3 °F 75.9 °F 69% 29.94 in 10.0 mi SE 4.6 mph - N/A Thunderstorm Mostly Cloudy
2:46 PM 80.1 °F 85.4 °F 75.9 °F 87% 29.94 in 6.0 mi South 11.5 mph - 0.01 in Rain Rain
2:53 PM 80.1 °F 85.4 °F 75.9 °F 87% 29.94 in 6.0 mi SSW 4.6 mph - 0.01 in Rain Light Rain
3:53 PM 82.9 °F 90.8 °F 75.9 °F 79% 29.94 in 10.0 mi ESE 9.2 mph - 0.00 in   Mostly Cloudy
4:53 PM 84.9 °F 93.3 °F 75.0 °F 72% 29.91 in 10.0 mi Calm Calm - N/A   Mostly Cloudy
5:53 PM 88.0 °F 97.5 °F 75.0 °F 65% 29.91 in 10.0 mi South 8.1 mph - N/A   Mostly Cloudy
6:53 PM 86.0 °F 96.0 °F 75.9 °F 72% 29.91 in 10.0 mi SSE 5.8 mph - N/A   Mostly Cloudy
7:53 PM 84.0 °F 92.6 °F 75.9 °F 76% 29.91 in 10.0 mi South 8.1 mph - N/A   Overcast
8:53 PM 82.9 °F 89.4 °F 73.9 °F 74% 29.92 in 10.0 mi SSE 5.8 mph - N/A   Partly Cloudy
9:53 PM 82.0 °F 88.6 °F 75.0 °F 79% 29.94 in 10.0 mi SSE 4.6 mph - N/A   Clear
10:53 PM 81.0 °F 86.7 °F 75.0 °F 82% 29.94 in 10.0 mi SSE 5.8 mph - N/A   Clear
11:53 PM 80.1 °F 85.4 °F 75.9 °F 87% 29.94 in 10.0 mi SSE 8.1 mph - N/A   Clear